AFL2130 UUEE-LTFM

Flight info

Callsign AFL2130
Flight time N/A
Altitude 33000
Route K0793F330 TOGMO3J TOGMO M56 ABAGI B105 NIMTA/K0795F320 B105 NATIT DCT MOLED N50 LIDUS/K0810F340 G242 ZG DCT ITAKA DCT OBBUD DCT AMKOL DCT GOTIK DCT MEMZA DCT VENFO DCT BINOL/K0819F360 G487 ODIRA/N0441F360 UN743 GAKSU UT310 NUGBA NUGBA1M
Aircraft A321/M-SADIE2E3FGHJ1RWY/LB1U1

Departure

Time 2026-02-18 07:41
Airport Sheremetyevo International Airport (UUEE)

Arrival

Time N/A
Airport İstanbul Airport (LTFM)
Time Latitude Longitude Altitude Speed Heading
2026-02-18 07:20 55.97743 37.41282 639 ft 0 kts 300°
2026-02-18 07:27 55.97737 37.41304 639 ft 3 kts 297°
2026-02-18 07:27 55.97728 37.41336 643 ft 3 kts 289°
2026-02-18 07:27 55.97723 37.41370 639 ft 3 kts 280°
2026-02-18 07:27 55.97720 37.41405 644 ft 3 kts 265°
2026-02-18 07:28 55.97724 37.41438 639 ft 3 kts 234°
2026-02-18 07:28 55.97734 37.41455 646 ft 2 kts 176°
2026-02-18 07:28 55.97738 37.41455 639 ft 0 kts 165°
2026-02-18 07:35 55.97736 37.41456 639 ft 1 kts 165°
2026-02-18 07:35 55.97715 37.41466 639 ft 4 kts 165°
2026-02-18 07:36 55.97684 37.41471 647 ft 5 kts 190°
2026-02-18 07:36 55.97657 37.41393 641 ft 12 kts 255°
2026-02-18 07:36 55.97576 37.41152 643 ft 10 kts 172°
2026-02-18 07:37 55.97525 37.41107 639 ft 9 kts 243°
2026-02-18 07:37 55.97504 37.40978 639 ft 12 kts 255°
2026-02-18 07:37 55.97481 37.40818 641 ft 15 kts 255°
2026-02-18 07:37 55.97452 37.40626 639 ft 17 kts 255°
2026-02-18 07:38 55.97418 37.40401 639 ft 20 kts 255°
2026-02-18 07:38 55.97379 37.40142 638 ft 23 kts 255°
2026-02-18 07:38 55.97336 37.39857 643 ft 23 kts 255°
2026-02-18 07:38 55.97296 37.39589 641 ft 22 kts 255°
2026-02-18 07:39 55.97257 37.39333 646 ft 20 kts 255°
2026-02-18 07:39 55.97223 37.39102 642 ft 19 kts 255°
2026-02-18 07:39 55.97191 37.38885 640 ft 17 kts 255°
2026-02-18 07:39 55.97164 37.38708 640 ft 9 kts 255°
2026-02-18 07:40 55.97127 37.38647 643 ft 8 kts 176°
2026-02-18 07:40 55.97054 37.38682 641 ft 13 kts 165°
2026-02-18 07:40 55.97007 37.38839 646 ft 9 kts 76°
2026-02-18 07:41 55.97058 37.39180 647 ft 64 kts 75°
2026-02-18 07:41 55.97237 37.40381 640 ft 133 kts 75°
2026-02-18 07:41 55.97522 37.42283 751 ft 176 kts 75°
2026-02-18 07:41 55.97823 37.44352 1708 ft 170 kts 77°
2026-02-18 07:42 55.98105 37.46371 2376 ft 166 kts 78°
2026-02-18 07:42 55.98381 37.48367 2928 ft 165 kts 78°
2026-02-18 07:42 55.98655 37.50350 3467 ft 164 kts 78°
2026-02-18 07:42 55.98931 37.52339 3905 ft 169 kts 79°
2026-02-18 07:43 55.99215 37.54398 4062 ft 190 kts 79°
2026-02-18 07:43 55.99557 37.56892 4225 ft 211 kts 78°
2026-02-18 07:43 55.99926 37.59564 4511 ft 229 kts 78°
2026-02-18 07:43 56.00314 37.62332 5278 ft 230 kts 78°
2026-02-18 07:44 56.00911 37.64992 5984 ft 237 kts 54°
2026-02-18 07:44 56.02280 37.66680 6603 ft 252 kts 19°
2026-02-18 07:44 56.05983 37.65965 7565 ft 281 kts 346°
2026-02-18 07:45 56.07863 37.64911 8262 ft 285 kts 343°
2026-02-18 07:45 56.09596 37.63152 8894 ft 293 kts 316°
2026-02-18 07:45 56.10775 37.60166 9538 ft 298 kts 292°
2026-02-18 07:45 56.11249 37.56558 10176 ft 299 kts 268°
2026-02-18 07:46 56.10940 37.52830 10462 ft 311 kts 248°
2026-02-18 07:46 56.10236 37.49100 10909 ft 320 kts 248°
2026-02-18 07:46 56.09546 37.45507 11501 ft 323 kts 248°
2026-02-18 07:46 56.08811 37.41689 12189 ft 325 kts 248°
2026-02-18 07:47 56.08074 37.37850 12871 ft 327 kts 246°
2026-02-18 07:47 56.07069 37.34228 13530 ft 325 kts 232°
2026-02-18 07:47 56.05624 37.31162 14173 ft 322 kts 218°
2026-02-18 07:47 56.03858 37.28733 14774 ft 320 kts 213°
2026-02-18 07:48 56.02037 37.26416 15390 ft 322 kts 214°
2026-02-18 07:48 56.00215 37.24092 15990 ft 323 kts 215°
2026-02-18 07:48 55.96588 37.19447 17212 ft 325 kts 217°
2026-02-18 07:49 55.94745 37.17086 17824 ft 326 kts 218°
2026-02-18 07:49 55.92896 37.14717 18434 ft 328 kts 219°
2026-02-18 07:49 55.91041 37.12352 18964 ft 329 kts 219°
2026-02-18 07:49 55.89177 37.09989 19503 ft 329 kts 219°
2026-02-18 07:50 55.87333 37.07652 20025 ft 330 kts 219°
2026-02-18 07:50 55.85363 37.05437 20547 ft 334 kts 210°
2026-02-18 07:50 55.83247 37.03694 21059 ft 336 kts 210°
2026-02-18 07:50 55.81143 37.01999 21548 ft 337 kts 210°
2026-02-18 07:51 55.78976 37.00259 22077 ft 338 kts 210°
2026-02-18 07:51 55.76863 36.98554 22566 ft 338 kts 210°
2026-02-18 07:51 55.74633 36.97105 23038 ft 346 kts 200°
2026-02-18 07:51 55.72216 36.96506 23487 ft 358 kts 188°
2026-02-18 07:52 55.69693 36.96870 23903 ft 369 kts 179°
2026-02-18 07:52 55.67978 36.97367 24155 ft 371 kts 179°
2026-02-18 07:52 55.62873 36.98962 24876 ft 379 kts 172°
2026-02-18 07:53 55.60378 37.00702 25214 ft 393 kts 160°
2026-02-18 07:53 55.58087 37.03440 25600 ft 405 kts 146°
2026-02-18 07:53 55.56126 37.07112 25892 ft 417 kts 135°
2026-02-18 07:53 55.54305 37.11119 26170 ft 420 kts 136°
2026-02-18 07:54 55.52470 37.15141 26468 ft 422 kts 136°
2026-02-18 07:54 55.50622 37.19183 26787 ft 424 kts 136°
2026-02-18 07:54 55.48762 37.23232 27076 ft 426 kts 136°
2026-02-18 07:54 55.46891 37.27287 27377 ft 428 kts 136°
2026-02-18 07:55 55.45002 37.31361 27681 ft 430 kts 137°
2026-02-18 07:55 55.43109 37.35454 27984 ft 432 kts 137°
2026-02-18 07:55 55.41205 37.39570 28295 ft 434 kts 137°
2026-02-18 07:55 55.39289 37.43700 28592 ft 436 kts 137°
2026-02-18 07:56 55.37367 37.47837 28850 ft 438 kts 137°
2026-02-18 07:56 55.35473 37.52073 29124 ft 445 kts 131°
2026-02-18 07:56 55.32438 37.61799 29473 ft 461 kts 123°
2026-02-18 07:57 55.30973 37.66833 29624 ft 466 kts 123°
2026-02-18 07:57 55.29490 37.71916 29775 ft 470 kts 123°
2026-02-18 07:57 55.27987 37.77035 29938 ft 474 kts 123°
2026-02-18 07:57 55.26465 37.82188 30078 ft 478 kts 123°
2026-02-18 07:58 55.24925 37.87388 30227 ft 482 kts 123°
2026-02-18 07:58 55.23372 37.92622 30365 ft 486 kts 123°
2026-02-18 07:58 55.21807 37.97890 30468 ft 490 kts 123°
2026-02-18 07:58 55.20229 38.03197 30675 ft 492 kts 123°
2026-02-18 07:59 55.18652 38.08494 30950 ft 491 kts 123°
2026-02-18 07:59 55.17071 38.13797 31251 ft 491 kts 123°
2026-02-18 07:59 55.15492 38.19077 31577 ft 490 kts 123°
2026-02-18 07:59 55.13911 38.24347 31900 ft 489 kts 124°
2026-02-18 08:00 55.12332 38.29601 32236 ft 488 kts 124°
2026-02-18 08:00 55.10752 38.34844 32560 ft 487 kts 124°
2026-02-18 08:00 55.07597 38.45290 33149 ft 486 kts 124°
2026-02-18 08:01 55.06022 38.50489 33244 ft 482 kts 124°
2026-02-18 08:01 55.02895 38.60778 33242 ft 479 kts 124°
2026-02-18 08:02 54.99759 38.71021 33247 ft 479 kts 124°
2026-02-18 08:02 54.96609 38.81260 33247 ft 479 kts 124°
2026-02-18 08:03 54.93457 38.91471 33254 ft 480 kts 124°
2026-02-18 08:03 54.90293 39.01691 33253 ft 480 kts 124°
2026-02-18 08:04 54.87149 39.11820 33253 ft 480 kts 125°
2026-02-18 08:04 54.82382 39.27068 33246 ft 479 kts 125°
2026-02-18 08:05 54.79187 39.37216 33218 ft 479 kts 125°
2026-02-18 08:05 54.75995 39.47333 33242 ft 479 kts 125°
2026-02-18 08:06 54.72800 39.57437 33246 ft 479 kts 125°
2026-02-18 08:06 54.69588 39.67525 33240 ft 479 kts 125°
2026-02-18 08:07 54.66361 39.77589 33212 ft 478 kts 125°
2026-02-18 08:07 54.63134 39.87629 33223 ft 478 kts 125°
2026-02-18 08:08 54.59906 39.97660 33232 ft 478 kts 125°
2026-02-18 08:09 54.55047 40.12691 33248 ft 479 kts 125°
2026-02-18 08:09 54.51789 40.22680 33251 ft 478 kts 125°
2026-02-18 08:10 54.48522 40.32639 33254 ft 478 kts 126°
2026-02-18 08:10 54.45262 40.42588 33260 ft 477 kts 125°
2026-02-18 08:11 54.41996 40.52513 33257 ft 477 kts 126°
2026-02-18 08:11 54.38717 40.62408 33256 ft 477 kts 126°
2026-02-18 08:12 54.35430 40.72287 33241 ft 477 kts 126°
2026-02-18 08:12 54.30482 40.87098 33250 ft 477 kts 126°
2026-02-18 08:13 54.27172 40.96943 33256 ft 477 kts 126°
2026-02-18 08:13 54.23860 41.06773 33261 ft 477 kts 126°
2026-02-18 08:14 54.20540 41.16574 33245 ft 476 kts 126°
2026-02-18 08:14 54.17217 41.26354 33261 ft 476 kts 126°
2026-02-18 08:15 54.13906 41.36055 33269 ft 476 kts 126°
2026-02-18 08:15 54.10567 41.45797 33264 ft 475 kts 126°
2026-02-18 08:16 54.07221 41.55506 33243 ft 476 kts 126°
2026-02-18 08:16 54.03855 41.65285 33256 ft 475 kts 126°
2026-02-18 08:17 53.98848 41.79740 33258 ft 475 kts 126°
2026-02-18 08:18 53.95477 41.89391 33258 ft 475 kts 126°
2026-02-18 08:18 53.92104 41.99024 33240 ft 475 kts 126°
2026-02-18 08:19 53.88721 42.08637 33256 ft 475 kts 126°
2026-02-18 08:19 53.85332 42.18245 33257 ft 475 kts 126°
2026-02-18 08:20 53.81939 42.27840 33253 ft 475 kts 126°
2026-02-18 08:20 53.78534 42.37412 33238 ft 475 kts 126°
2026-02-18 08:21 53.75123 42.46967 33246 ft 475 kts 126°
2026-02-18 08:21 53.69886 42.61108 33252 ft 469 kts 134°
2026-02-18 08:22 53.65255 42.68551 33250 ft 454 kts 152°
2026-02-18 08:22 53.59774 42.73420 33232 ft 442 kts 163°
2026-02-18 08:23 53.54106 42.77492 33242 ft 444 kts 163°
2026-02-18 08:23 53.48433 42.81573 33246 ft 444 kts 163°
2026-02-18 08:24 53.42757 42.85671 33250 ft 444 kts 163°
2026-02-18 08:24 53.37087 42.89750 33243 ft 443 kts 163°
2026-02-18 08:25 53.28576 42.95834 33227 ft 443 kts 163°
2026-02-18 08:26 53.22905 42.99861 33229 ft 442 kts 163°
2026-02-18 08:26 53.17245 43.03869 33228 ft 441 kts 163°
2026-02-18 08:27 53.11598 43.07873 33227 ft 441 kts 162°
2026-02-18 08:27 53.05984 43.12030 33222 ft 442 kts 161°
2026-02-18 08:28 53.00393 43.16255 33229 ft 441 kts 162°
2026-02-18 08:28 52.94806 43.20412 33232 ft 440 kts 162°
2026-02-18 08:29 52.89208 43.24539 33225 ft 440 kts 162°
2026-02-18 08:29 52.80816 43.30696 33195 ft 440 kts 162°
2026-02-18 08:30 52.75227 43.34796 33204 ft 440 kts 162°
2026-02-18 08:30 52.69638 43.38893 33186 ft 439 kts 162°
2026-02-18 08:31 52.64056 43.42964 33197 ft 439 kts 162°
2026-02-18 08:31 52.58475 43.47024 33199 ft 438 kts 162°
2026-02-18 08:32 52.52892 43.51066 33202 ft 438 kts 162°
2026-02-18 08:32 52.47322 43.55100 33196 ft 438 kts 162°
2026-02-18 08:33 52.38982 43.61095 33202 ft 438 kts 162°
2026-02-18 08:34 52.33400 43.65096 33197 ft 438 kts 162°
2026-02-18 08:34 52.27817 43.69092 33181 ft 438 kts 163°
2026-02-18 08:35 52.22242 43.73078 33165 ft 437 kts 162°
2026-02-18 08:35 52.16675 43.77045 33189 ft 436 kts 162°
2026-02-18 08:36 52.11115 43.80992 33196 ft 435 kts 163°
2026-02-18 08:36 52.05564 43.84918 33175 ft 435 kts 163°
2026-02-18 08:37 52.00918 43.88191 33179 ft 434 kts 163°
2026-02-18 08:37 51.92610 43.94037 33196 ft 434 kts 163°
2026-02-18 08:38 51.87071 43.97928 33179 ft 433 kts 163°
2026-02-18 08:38 51.81538 44.01803 33187 ft 433 kts 163°
2026-02-18 08:39 51.76002 44.05656 33174 ft 433 kts 163°
2026-02-18 08:39 51.70467 44.09508 33166 ft 433 kts 163°
2026-02-18 08:40 51.64935 44.13349 33170 ft 433 kts 163°
2026-02-18 08:40 51.59404 44.17187 33171 ft 432 kts 163°
2026-02-18 08:41 51.51140 44.22897 33154 ft 432 kts 163°
2026-02-18 08:42 51.45656 44.26665 33157 ft 432 kts 163°
2026-02-18 08:42 51.40131 44.30441 33161 ft 432 kts 163°
2026-02-18 08:43 51.34599 44.34232 33168 ft 432 kts 163°
2026-02-18 08:43 51.29076 44.37998 33141 ft 431 kts 163°
2026-02-18 08:44 51.23559 44.41746 33139 ft 431 kts 162°
2026-02-18 08:44 51.18044 44.45485 33149 ft 430 kts 162°
2026-02-18 08:45 51.12381 44.48048 33152 ft 420 kts 174°
2026-02-18 08:45 51.03766 44.50768 33130 ft 421 kts 174°
2026-02-18 08:46 50.98028 44.52594 33133 ft 420 kts 174°
2026-02-18 08:46 50.92296 44.54400 33140 ft 420 kts 174°
2026-02-18 08:47 50.86566 44.56192 33132 ft 420 kts 174°
2026-02-18 08:47 50.80830 44.57987 33128 ft 420 kts 174°
2026-02-18 08:48 50.75099 44.59781 33115 ft 419 kts 174°
2026-02-18 08:48 50.69374 44.61564 33124 ft 419 kts 174°
2026-02-18 08:49 50.60788 44.64227 33124 ft 419 kts 174°
2026-02-18 08:50 50.55071 44.66006 33125 ft 419 kts 174°
2026-02-18 08:50 50.49348 44.67784 33117 ft 419 kts 174°
2026-02-18 08:51 50.43630 44.69538 33101 ft 419 kts 174°
2026-02-18 08:51 50.37915 44.71297 33104 ft 418 kts 174°
2026-02-18 08:52 50.32207 44.73045 33115 ft 418 kts 174°
2026-02-18 08:52 50.26508 44.74788 33105 ft 417 kts 174°
2026-02-18 08:53 50.20804 44.76528 33110 ft 418 kts 174°
2026-02-18 08:53 50.12259 44.79138 33088 ft 417 kts 174°
2026-02-18 08:54 50.06576 44.80863 33089 ft 416 kts 173°
2026-02-18 08:54 50.00889 44.82585 33091 ft 416 kts 173°
2026-02-18 08:55 49.95213 44.84308 33088 ft 415 kts 173°
2026-02-18 08:55 49.89535 44.86025 33086 ft 416 kts 173°
2026-02-18 08:56 49.83857 44.87724 33081 ft 415 kts 174°
2026-02-18 08:56 49.78184 44.89412 33081 ft 416 kts 173°
2026-02-18 08:57 49.69665 44.91963 33079 ft 415 kts 173°
2026-02-18 08:58 49.63985 44.93654 33056 ft 416 kts 173°
2026-02-18 08:58 49.58304 44.95356 33064 ft 416 kts 173°
2026-02-18 08:59 49.52662 44.97035 33072 ft 416 kts 173°
2026-02-18 08:59 49.46979 44.98714 33077 ft 416 kts 173°
2026-02-18 09:00 49.41292 45.00398 33072 ft 416 kts 173°
2026-02-18 09:00 49.35606 45.02078 33060 ft 416 kts 173°
2026-02-18 09:01 49.29915 45.03734 33071 ft 416 kts 173°
2026-02-18 09:01 49.21383 45.06221 33071 ft 416 kts 173°
2026-02-18 09:02 49.15689 45.07896 33071 ft 417 kts 173°
2026-02-18 09:02 49.09993 45.09557 33043 ft 417 kts 173°
2026-02-18 09:03 49.04293 45.11212 33055 ft 417 kts 173°
2026-02-18 09:03 48.98597 45.12862 33052 ft 417 kts 173°
2026-02-18 09:04 48.92899 45.14512 33055 ft 417 kts 173°
2026-02-18 09:04 48.87205 45.16170 33069 ft 416 kts 173°
2026-02-18 09:05 48.78668 45.18633 33053 ft 416 kts 173°
2026-02-18 09:06 48.72983 45.20262 33050 ft 416 kts 173°
2026-02-18 09:06 48.67296 45.21888 33032 ft 416 kts 173°
2026-02-18 09:07 48.61606 45.23513 33026 ft 416 kts 173°
2026-02-18 09:07 48.55916 45.25134 33003 ft 416 kts 173°
2026-02-18 09:08 48.50233 45.26754 33032 ft 416 kts 173°
2026-02-18 09:08 48.44545 45.28367 33040 ft 416 kts 173°
2026-02-18 09:09 48.38938 45.30565 33038 ft 422 kts 161°
2026-02-18 09:09 48.30994 45.36386 33020 ft 424 kts 158°
2026-02-18 09:10 48.25701 45.40263 33030 ft 423 kts 158°
2026-02-18 09:10 48.20408 45.44125 33024 ft 423 kts 158°
2026-02-18 09:11 48.15151 45.47973 33029 ft 423 kts 158°
2026-02-18 09:11 48.09860 45.51837 33005 ft 423 kts 158°
2026-02-18 09:12 48.04564 45.55692 33010 ft 423 kts 158°
2026-02-18 09:12 47.99259 45.59527 33015 ft 423 kts 158°
2026-02-18 09:13 47.91307 45.65288 33019 ft 423 kts 158°
2026-02-18 09:14 47.86010 45.69116 32998 ft 423 kts 158°
2026-02-18 09:14 47.80706 45.72934 33007 ft 424 kts 158°
2026-02-18 09:15 47.75400 45.76742 33010 ft 423 kts 158°
2026-02-18 09:15 47.70090 45.80534 33012 ft 423 kts 158°
2026-02-18 09:16 47.64777 45.84314 32993 ft 423 kts 159°
2026-02-18 09:16 47.59468 45.88095 33000 ft 423 kts 159°
2026-02-18 09:17 47.54160 45.91884 33000 ft 423 kts 158°
2026-02-18 09:17 47.46191 45.97558 33001 ft 424 kts 159°
2026-02-18 09:18 47.40873 46.01306 33003 ft 424 kts 159°
2026-02-18 09:18 47.35555 46.05069 33002 ft 424 kts 159°
2026-02-18 09:19 47.30243 46.08831 32998 ft 424 kts 159°
2026-02-18 09:19 47.24930 46.12590 32990 ft 424 kts 159°
2026-02-18 09:20 47.20510 46.15706 32982 ft 424 kts 159°
2026-02-18 09:20 47.14294 46.20060 32989 ft 424 kts 159°
2026-02-18 09:21 47.07275 46.25251 32984 ft 428 kts 150°
2026-02-18 09:22 47.02896 46.31280 32963 ft 440 kts 131°
2026-02-18 09:22 46.97903 46.42688 32973 ft 444 kts 127°
2026-02-18 09:23 46.94584 46.50308 32973 ft 444 kts 127°
2026-02-18 09:23 46.91255 46.57930 32978 ft 444 kts 127°
2026-02-18 09:24 46.87916 46.65545 32963 ft 445 kts 128°
2026-02-18 09:24 46.84562 46.73162 32966 ft 447 kts 128°
2026-02-18 09:25 46.79515 46.84617 32975 ft 447 kts 128°
2026-02-18 09:26 46.76141 46.92246 32954 ft 448 kts 128°
2026-02-18 09:26 46.72756 46.99868 32965 ft 449 kts 128°
2026-02-18 09:27 46.69355 47.07505 32974 ft 450 kts 128°
2026-02-18 09:27 46.65979 47.15193 32980 ft 451 kts 127°
2026-02-18 09:28 46.62638 47.22920 32941 ft 451 kts 127°
2026-02-18 09:28 46.59273 47.30653 32972 ft 453 kts 128°
2026-02-18 09:29 46.55890 47.38373 32974 ft 453 kts 128°
2026-02-18 09:29 46.50800 47.49940 32977 ft 453 kts 128°
2026-02-18 09:30 46.47423 47.57588 32954 ft 453 kts 128°
2026-02-18 09:30 46.43993 47.65338 32963 ft 454 kts 128°
2026-02-18 09:31 46.40574 47.73036 32968 ft 454 kts 128°
2026-02-18 09:31 46.37171 47.80679 32973 ft 455 kts 128°
2026-02-18 09:32 46.33743 47.88374 32971 ft 455 kts 128°
2026-02-18 09:32 46.30302 47.96068 32974 ft 456 kts 128°
2026-02-18 09:33 46.26873 48.09034 32982 ft 470 kts 107°
2026-02-18 09:34 46.25483 48.18269 32983 ft 470 kts 107°
2026-02-18 09:34 46.24076 48.27494 32959 ft 470 kts 107°
2026-02-18 09:35 46.22645 48.36718 32962 ft 471 kts 107°
2026-02-18 09:35 46.20782 48.45707 32957 ft 460 kts 125°
2026-02-18 09:35 46.18978 48.49425 32955 ft 447 kts 140°
2026-02-18 09:36 46.16661 48.52292 32953 ft 434 kts 154°
2026-02-18 09:36 46.14006 48.54192 32917 ft 421 kts 168°
2026-02-18 09:36 46.11188 48.55104 32940 ft 411 kts 181°
2026-02-18 09:36 46.08365 48.55056 32941 ft 402 kts 194°
2026-02-18 09:37 46.05674 48.54136 32947 ft 396 kts 202°
2026-02-18 09:37 45.97767 48.50584 32943 ft 398 kts 202°
2026-02-18 09:38 45.92469 48.48241 32942 ft 399 kts 202°
2026-02-18 09:38 45.87160 48.45895 32943 ft 399 kts 202°
2026-02-18 09:39 45.81854 48.43545 32947 ft 399 kts 202°
2026-02-18 09:39 45.76549 48.41199 32942 ft 399 kts 202°
2026-02-18 09:40 45.71237 48.38859 32949 ft 399 kts 202°
2026-02-18 09:40 45.65931 48.36516 32948 ft 399 kts 202°
2026-02-18 09:41 45.57964 48.33019 32948 ft 399 kts 202°
2026-02-18 09:42 45.52656 48.30701 32952 ft 399 kts 202°
2026-02-18 09:42 45.47354 48.28373 32926 ft 398 kts 203°
2026-02-18 09:43 45.42063 48.26055 32934 ft 398 kts 203°
2026-02-18 09:43 45.36771 48.23750 32944 ft 398 kts 203°
2026-02-18 09:44 45.31480 48.21458 32948 ft 397 kts 203°
2026-02-18 09:44 45.26195 48.19171 32953 ft 397 kts 203°
2026-02-18 09:45 45.20915 48.16883 32948 ft 396 kts 203°
2026-02-18 09:45 45.13022 48.13468 32940 ft 395 kts 204°
2026-02-18 09:46 45.07801 48.11215 32946 ft 394 kts 204°
2026-02-18 09:46 45.02524 48.08949 32944 ft 394 kts 204°
2026-02-18 09:47 44.97284 48.06701 32951 ft 393 kts 204°
2026-02-18 09:47 44.92087 48.04476 32952 ft 393 kts 204°
2026-02-18 09:48 44.86855 48.02237 32912 ft 393 kts 205°
2026-02-18 09:48 44.81635 48.00016 32942 ft 391 kts 205°
2026-02-18 09:49 44.73836 47.96697 32951 ft 390 kts 205°
2026-02-18 09:50 44.68654 47.94485 32950 ft 389 kts 205°
2026-02-18 09:50 44.63474 47.92283 32948 ft 388 kts 205°
2026-02-18 09:51 44.58305 47.90094 32931 ft 388 kts 205°
2026-02-18 09:51 44.53139 47.87920 32936 ft 387 kts 206°
2026-02-18 09:52 44.47991 47.85752 32950 ft 385 kts 206°
2026-02-18 09:52 44.42868 47.83591 32944 ft 384 kts 206°
2026-02-18 09:53 44.37754 47.81433 32937 ft 384 kts 206°
2026-02-18 09:53 44.30092 47.78230 32942 ft 383 kts 207°
2026-02-18 09:54 44.24992 47.76092 32935 ft 382 kts 207°
2026-02-18 09:54 44.19901 47.73967 32913 ft 381 kts 207°
2026-02-18 09:55 44.14822 47.71856 32930 ft 380 kts 207°
2026-02-18 09:55 44.09763 47.69754 32928 ft 379 kts 207°
2026-02-18 09:56 44.04718 47.67663 32931 ft 378 kts 208°
2026-02-18 09:56 43.99688 47.65576 32932 ft 377 kts 208°
2026-02-18 09:57 43.92161 47.62463 32889 ft 376 kts 208°
2026-02-18 09:58 43.87147 47.60395 32910 ft 376 kts 208°
2026-02-18 09:58 43.82174 47.58345 32914 ft 375 kts 208°
2026-02-18 09:59 43.77170 47.56287 32922 ft 375 kts 208°
2026-02-18 09:59 43.72166 47.54234 32916 ft 375 kts 208°
2026-02-18 10:00 43.67181 47.52156 32914 ft 369 kts 212°
2026-02-18 10:00 43.64973 47.50552 32914 ft 352 kts 225°
2026-02-18 10:00 43.63222 47.48299 32915 ft 340 kts 237°
2026-02-18 10:00 43.61972 47.45588 32912 ft 334 kts 248°
2026-02-18 10:01 43.61250 47.42565 32910 ft 333 kts 258°
2026-02-18 10:01 43.60444 47.33027 32904 ft 334 kts 261°
2026-02-18 10:02 43.59912 47.26667 32900 ft 334 kts 261°
2026-02-18 10:02 43.59378 47.20301 32888 ft 334 kts 261°
2026-02-18 10:03 43.58840 47.13934 32890 ft 334 kts 261°
2026-02-18 10:03 43.58296 47.07576 32890 ft 334 kts 261°
2026-02-18 10:04 43.57749 47.01211 32889 ft 334 kts 261°
2026-02-18 10:04 43.57201 46.94840 32889 ft 334 kts 261°
2026-02-18 10:05 43.56371 46.85303 32889 ft 334 kts 261°
2026-02-18 10:06 43.55809 46.78953 32916 ft 334 kts 260°
2026-02-18 10:06 43.55251 46.72646 32911 ft 333 kts 260°
2026-02-18 10:07 43.54688 46.66302 32904 ft 333 kts 260°
2026-02-18 10:07 43.54219 46.60989 32896 ft 333 kts 260°
2026-02-18 10:08 43.53653 46.54649 32890 ft 333 kts 260°
2026-02-18 10:08 43.53080 46.48310 32887 ft 333 kts 260°
2026-02-18 10:09 43.52503 46.42018 32877 ft 333 kts 260°
2026-02-18 10:09 43.51631 46.32516 32878 ft 333 kts 259°
2026-02-18 10:10 43.51044 46.26190 32868 ft 332 kts 259°
2026-02-18 10:10 43.50460 46.19881 32868 ft 332 kts 259°
2026-02-18 10:11 43.49871 46.13567 32888 ft 332 kts 259°
2026-02-18 10:11 43.49273 46.07255 32872 ft 333 kts 259°
2026-02-18 10:12 43.49232 46.00869 32866 ft 339 kts 271°
2026-02-18 10:12 43.49787 45.94406 32860 ft 340 kts 270°
2026-02-18 10:13 43.50582 45.84721 32832 ft 339 kts 269°
2026-02-18 10:14 43.51107 45.78265 32833 ft 339 kts 270°
2026-02-18 10:14 43.51639 45.71773 33085 ft 343 kts 269°
2026-02-18 10:14 43.51905 45.68514 33394 ft 341 kts 269°
2026-02-18 10:15 43.52170 45.65273 33749 ft 340 kts 269°
2026-02-18 10:15 43.52695 45.58815 33844 ft 338 kts 269°
2026-02-18 10:16 43.53212 45.52385 33847 ft 337 kts 269°
2026-02-18 10:16 43.53720 45.45963 33848 ft 337 kts 269°
2026-02-18 10:17 43.54225 45.39537 33843 ft 337 kts 269°
2026-02-18 10:17 43.54978 45.29902 33844 ft 337 kts 269°
2026-02-18 10:18 43.55475 45.23476 33843 ft 337 kts 269°
2026-02-18 10:18 43.55800 45.19219 33846 ft 338 kts 270°
2026-02-18 10:19 43.56751 45.06698 33814 ft 341 kts 269°
2026-02-18 10:20 43.57453 44.97380 33810 ft 342 kts 269°
2026-02-18 10:20 43.57934 44.90857 33804 ft 342 kts 269°
2026-02-18 10:21 43.58649 44.81143 33800 ft 342 kts 269°
2026-02-18 10:22 43.59127 44.74604 33814 ft 344 kts 270°
2026-02-18 10:22 43.59603 44.68025 33759 ft 346 kts 269°
2026-02-18 10:23 43.60073 44.61414 33772 ft 347 kts 269°
2026-02-18 10:23 43.60579 44.54784 33779 ft 348 kts 269°
2026-02-18 10:24 43.61506 44.41497 33785 ft 347 kts 269°
2026-02-18 10:25 43.61954 44.34855 33784 ft 348 kts 269°
2026-02-18 10:26 43.62891 44.20935 33811 ft 366 kts 270°
2026-02-18 10:26 43.63123 44.17432 33800 ft 367 kts 270°
2026-02-18 10:26 43.63559 44.10414 33798 ft 366 kts 269°
2026-02-18 10:27 43.63784 44.03410 33802 ft 364 kts 266°
2026-02-18 10:27 43.63936 43.96445 33801 ft 363 kts 266°
2026-02-18 10:28 43.64113 43.89493 33796 ft 362 kts 267°
2026-02-18 10:28 43.64306 43.82544 33786 ft 363 kts 267°
2026-02-18 10:29 43.64598 43.72117 33782 ft 362 kts 267°
2026-02-18 10:30 43.64778 43.65213 33783 ft 362 kts 267°
2026-02-18 10:30 43.64955 43.58272 33777 ft 362 kts 267°
2026-02-18 10:31 43.65131 43.51327 33777 ft 362 kts 266°
2026-02-18 10:31 43.65303 43.44375 33779 ft 363 kts 266°
2026-02-18 10:32 43.65470 43.37421 33787 ft 362 kts 266°
2026-02-18 10:32 43.65604 43.31640 33764 ft 363 kts 266°
2026-02-18 10:33 43.65766 43.24671 33731 ft 364 kts 266°
2026-02-18 10:33 43.65997 43.14176 33727 ft 365 kts 266°
2026-02-18 10:34 43.66154 43.07151 33700 ft 366 kts 267°
2026-02-18 10:34 43.66301 43.00140 33695 ft 365 kts 266°
2026-02-18 10:35 43.66437 42.93139 33714 ft 364 kts 265°
2026-02-18 10:35 43.66568 42.86130 33723 ft 367 kts 266°
2026-02-18 10:36 43.66699 42.79063 33675 ft 369 kts 266°
2026-02-18 10:36 43.66767 42.75522 33674 ft 369 kts 266°
2026-02-18 10:37 43.67026 42.61292 33664 ft 371 kts 266°
2026-02-18 10:38 43.67143 42.54170 33668 ft 371 kts 266°
2026-02-18 10:38 43.67259 42.47069 33668 ft 370 kts 266°
2026-02-18 10:39 43.67369 42.39950 33677 ft 371 kts 266°
2026-02-18 10:39 43.67468 42.32799 33660 ft 374 kts 266°
2026-02-18 10:40 43.67569 42.25649 33656 ft 376 kts 266°
2026-02-18 10:40 43.67678 42.18445 33634 ft 376 kts 266°
2026-02-18 10:41 43.67772 42.11222 33653 ft 377 kts 266°
2026-02-18 10:41 43.67893 42.00326 33636 ft 378 kts 266°
2026-02-18 10:42 43.67977 41.93050 33662 ft 379 kts 266°
2026-02-18 10:42 43.68061 41.85747 33639 ft 381 kts 266°
2026-02-18 10:43 43.68139 41.78411 33623 ft 382 kts 266°
2026-02-18 10:43 43.68203 41.71055 33635 ft 384 kts 266°
2026-02-18 10:44 43.68267 41.63667 33634 ft 384 kts 266°
2026-02-18 10:45 43.68409 41.45477 33660 ft 385 kts 266°
2026-02-18 10:46 43.68463 41.38045 33647 ft 389 kts 266°
2026-02-18 10:46 43.68508 41.30572 33648 ft 389 kts 266°
2026-02-18 10:47 43.68547 41.23084 33648 ft 390 kts 266°
2026-02-18 10:47 43.68586 41.15589 33653 ft 390 kts 266°
2026-02-18 10:48 43.68623 41.08104 33639 ft 389 kts 266°
2026-02-18 10:48 43.68646 41.00619 33653 ft 390 kts 266°
2026-02-18 10:49 43.68655 40.93119 33657 ft 391 kts 266°
2026-02-18 10:49 43.68689 40.81786 33645 ft 395 kts 266°
2026-02-18 10:50 43.68733 40.74206 33643 ft 395 kts 266°
2026-02-18 10:50 43.68771 40.66598 33649 ft 396 kts 266°
2026-02-18 10:51 43.68798 40.58999 33652 ft 396 kts 266°
2026-02-18 10:51 43.68818 40.51400 33659 ft 395 kts 265°
2026-02-18 10:52 43.68828 40.43813 33638 ft 395 kts 266°
2026-02-18 10:52 43.68834 40.36206 33624 ft 397 kts 266°
2026-02-18 10:53 43.68832 40.24731 33618 ft 399 kts 266°
2026-02-18 10:54 43.68825 40.17064 33620 ft 399 kts 266°
2026-02-18 10:54 43.68229 40.09529 33617 ft 392 kts 251°
2026-02-18 10:55 43.66138 40.02621 33612 ft 390 kts 244°
2026-02-18 10:55 43.63904 39.95780 33611 ft 391 kts 244°
2026-02-18 10:56 43.61690 39.88972 33622 ft 392 kts 244°
2026-02-18 10:56 43.59452 39.82113 33605 ft 393 kts 244°
2026-02-18 10:57 43.57194 39.75248 33595 ft 393 kts 244°
2026-02-18 10:57 43.53787 39.64943 33595 ft 394 kts 244°
2026-02-18 10:58 43.51505 39.58065 33600 ft 395 kts 244°
2026-02-18 10:58 43.49214 39.51195 33601 ft 395 kts 244°
2026-02-18 10:59 43.46918 39.44331 33611 ft 394 kts 243°
2026-02-18 10:59 43.44619 39.37482 33610 ft 394 kts 243°
2026-02-18 11:00 43.42314 39.30652 33609 ft 394 kts 243°
2026-02-18 11:00 43.40017 39.23817 33606 ft 394 kts 243°
2026-02-18 11:01 43.36568 39.13579 33610 ft 394 kts 243°
2026-02-18 11:02 43.35416 39.10168 33611 ft 393 kts 243°